TimeAKST,TemperatureF,Dew PointF,Humidity,Sea Level PressureIn,VisibilityMPH,Wind Direction,Wind SpeedMPH,Gust SpeedMPH,PrecipitationIn,Events,Conditions,WindDirDegrees,DateUTC
12:54 AM,34.0,30.0,85,29.83,10.0,ESE,18.4,28.8,N/A,,Overcast,110,2013-01-18 09:54:00
1:54 AM,34.0,30.0,85,29.87,10.0,East,13.8,25.3,N/A,,Overcast,100,2013-01-18 10:54:00
2:10 AM,33.8,30.2,87,29.87,10.0,ESE,10.4,23.0,N/A,,Overcast,120,2013-01-18 11:10:00
2:31 AM,33.8,28.4,81,29.88,10.0,ESE,9.2,-,N/A,,Overcast,110,2013-01-18 11:31:00
2:54 AM,33.1,30.0,89,29.90,10.0,Variable,6.9,20.7,N/A,,Overcast,0,2013-01-18 11:54:00
3:11 AM,33.8,30.2,87,29.90,10.0,ESE,10.4,17.3,N/A,,Overcast,120,2013-01-18 12:11:00
3:35 AM,33.8,30.2,87,29.91,10.0,East,6.9,-,N/A,,Overcast,100,2013-01-18 12:35:00
3:46 AM,33.8,30.2,87,29.92,10.0,East,8.1,-,N/A,,Overcast,90,2013-01-18 12:46:00
3:54 AM,33.1,30.0,89,29.93,10.0,East,6.9,-,N/A,,Overcast,90,2013-01-18 12:54:00
4:54 AM,33.1,28.9,85,29.94,10.0,Variable,6.9,-,N/A,,Mostly Cloudy,0,2013-01-18 13:54:00
5:54 AM,33.1,28.9,85,29.97,10.0,East,6.9,-,N/A,,Mostly Cloudy,100,2013-01-18 14:54:00
6:21 AM,33.8,28.4,81,29.97,10.0,East,6.9,-,N/A,,Mostly Cloudy,80,2013-01-18 15:21:00
6:39 AM,33.8,28.4,81,29.98,10.0,East,6.9,-,N/A,,Mostly Cloudy,100,2013-01-18 15:39:00
6:54 AM,34.0,30.0,85,29.99,10.0,ENE,6.9,-,N/A,,Mostly Cloudy,70,2013-01-18 15:54:00
7:03 AM,33.8,30.2,87,29.99,10.0,ENE,6.9,-,N/A,,Scattered Clouds,70,2013-01-18 16:03:00
7:54 AM,32.0,28.9,88,30.03,10.0,Calm,Calm,-,N/A,,Clear,0,2013-01-18 16:54:00
8:34 AM,30.2,28.4,93,30.04,10.0,Calm,Calm,-,N/A,,Mostly Cloudy,0,2013-01-18 17:34:00
8:54 AM,30.0,27.0,88,30.06,10.0,WNW,5.8,-,N/A,,Scattered Clouds,290,2013-01-18 17:54:00
9:54 AM,30.9,27.0,85,30.09,10.0,WNW,8.1,-,N/A,,Clear,300,2013-01-18 18:54:00
10:54 AM,33.1,28.9,85,30.12,10.0,WNW,5.8,-,N/A,,Clear,290,2013-01-18 19:54:00
11:54 AM,33.1,27.0,78,30.14,10.0,WNW,9.2,-,N/A,,Clear,290,2013-01-18 20:54:00
12:54 PM,32.0,28.0,85,30.16,10.0,WNW,12.7,-,N/A,,Clear,290,2013-01-18 21:54:00
1:54 PM,30.0,25.0,82,30.18,10.0,WNW,11.5,-,N/A,,Clear,300,2013-01-18 22:54:00
2:54 PM,28.9,24.1,82,30.19,10.0,West,11.5,-,N/A,,Clear,280,2013-01-18 23:54:00
3:54 PM,28.0,21.9,78,30.20,10.0,WNW,11.5,-,N/A,,Clear,290,2013-01-19 00:54:00
4:54 PM,28.0,21.9,78,30.22,10.0,WNW,12.7,-,N/A,,Mostly Cloudy,290,2013-01-19 01:54:00
5:54 PM,27.0,21.9,81,30.22,10.0,WNW,10.4,-,N/A,,Mostly Cloudy,290,2013-01-19 02:54:00
6:54 PM,26.1,21.0,81,30.24,10.0,WNW,11.5,-,N/A,,Mostly Cloudy,290,2013-01-19 03:54:00
7:54 PM,26.1,21.0,81,30.25,10.0,WNW,10.4,-,N/A,,Scattered Clouds,300,2013-01-19 04:54:00
8:54 PM,26.1,21.0,81,30.26,10.0,West,11.5,-,N/A,,Overcast,280,2013-01-19 05:54:00
9:54 PM,26.1,21.0,81,30.28,10.0,WNW,11.5,-,N/A,,Overcast,290,2013-01-19 06:54:00
10:54 PM,26.1,19.9,78,30.30,10.0,WNW,10.4,-,N/A,,Overcast,290,2013-01-19 07:54:00
11:54 PM,26.1,19.9,78,30.31,10.0,WNW,8.1,-,N/A,,Overcast,290,2013-01-19 08:54:00